| time (UTC) | temp F | wind direction | speed MPH | gust MPH | rain 1hr in | rain 24hr in | rain mn in | humidity % | barometer mb |
| 20260507040505 | 59 | 192 | 0.0 | 2.0 | 0.00 | 0.00 | 0.00 | 86 | 1017.6 |
| 20260507040002 | 59 | 177 | 0.0 | 2.0 | 0.00 | 0.00 | 0.00 | 85 | 1017.6 |
| 20260507035502 | 59 | 236 | 0.0 | 2.0 | 0.00 | 0.00 | 0.00 | 85 | 1017.5 |
| 20260507035002 | 59 | 236 | 0.0 | 3.0 | 0.00 | 0.00 | 0.00 | 85 | 1017.4 |
| 20260507034505 | 59 | 236 | 1.0 | 4.0 | 0.00 | 0.00 | 0.00 | 85 | 1017.3 |
| 20260507034001 | 59 | 232 | 1.0 | 4.0 | 0.00 | 0.00 | 0.00 | 84 | 1017.4 |
| 20260507033501 | 60 | 226 | 2.0 | 4.0 | 0.00 | 0.00 | 0.00 | 84 | 1017.3 |
| 20260507033010 | 60 | 206 | 3.0 | 4.0 | 0.00 | 0.00 | 0.00 | 83 | 1017.2 |
| 20260507032459 | 60 | 185 | 2.0 | 4.0 | 0.00 | 0.00 | 0.00 | 83 | 1017.1 |
| 20260507032002 | 60 | 206 | 1.0 | 3.0 | 0.00 | 0.00 | 0.00 | 83 | 1017.1 |
| 20260507031503 | 60 | 206 | 2.0 | 3.0 | 0.00 | 0.00 | 0.00 | 83 | 1017.0 |
| 20260507031003 | 60 | 211 | 1.0 | 3.0 | 0.00 | 0.00 | 0.00 | 83 | 1016.9 |
| 20260507030503 | 60 | 211 | 2.0 | 3.0 | 0.00 | 0.00 | 0.00 | 82 | 1016.8 |
| 20260507030003 | 60 | 230 | 1.0 | 4.0 | 0.00 | 0.00 | 0.00 | 82 | 1016.8 |
| 20260507025458 | 60 | 212 | 2.0 | 6.0 | 0.00 | 0.00 | 0.00 | 81 | 1016.7 |
| 20260507025002 | 61 | 254 | 3.0 | 6.0 | 0.00 | 0.00 | 0.00 | 80 | 1016.7 |
| 20260507024503 | 61 | 264 | 2.0 | 7.0 | 0.00 | 0.00 | 0.00 | 1016.8 | |
| 20260507024006 | 61 | 244 | 5.0 | 7.0 | 0.00 | 0.00 | 0.00 | 77 | 1016.7 |
| 20260507023503 | 62 | 211 | 4.0 | 6.0 | 0.00 | 0.00 | 0.00 | 77 | 1016.7 |
| 20260507023006 | 62 | 213 | 4.0 | 7.0 | 0.00 | 0.00 | 0.00 | 76 | 1016.6 |
| 20260507022503 | 62 | 227 | 3.0 | 7.0 | 0.00 | 0.00 | 0.00 | 74 | 1016.5 |
| 20260507022003 | 62 | 220 | 4.0 | 9.0 | 0.00 | 0.00 | 0.00 | 73 | 1016.5 |
| 20260507021504 | 62 | 188 | 4.0 | 9.0 | 0.00 | 0.00 | 0.00 | 73 | 1016.5 |
| 20260507021002 | 62 | 214 | 2.0 | 8.0 | 0.00 | 0.00 | 0.00 | 73 | 1016.5 |
| 20260507020502 | 63 | 215 | 4.0 | 7.0 | 0.00 | 0.00 | 0.00 | 74 | 1016.4 |
| 20260507020006 | 63 | 211 | 4.0 | 8.0 | 0.00 | 0.00 | 0.00 | 74 | 1016.5 |
| 20260507015501 | 63 | 263 | 4.0 | 9.0 | 0.00 | 0.00 | 0.00 | 75 | 1016.5 |
| 20260507015005 | 63 | 217 | 5.0 | 9.0 | 0.00 | 0.00 | 0.00 | 75 | 1016.5 |
| 20260507014507 | 64 | 224 | 5.0 | 9.0 | 0.00 | 0.00 | 0.00 | 74 | 1016.4 |
| 20260507014003 | 63 | 231 | 4.0 | 8.0 | 0.00 | 0.00 | 0.00 | 73 | 1016.4 |
| 20260507013502 | 64 | 219 | 5.0 | 9.0 | 0.00 | 0.00 | 0.00 | 73 | 1016.4 |
| 20260507013003 | 64 | 242 | 4.0 | 10.0 | 0.00 | 0.00 | 0.00 | 71 | 1016.4 |
| 20260507012503 | 64 | 271 | 6.0 | 10.0 | 0.00 | 0.00 | 0.00 | 70 | 1016.4 |
| 20260507012003 | 64 | 234 | 6.0 | 10.0 | 0.00 | 0.00 | 0.00 | 70 | 1016.4 |
| 20260507011505 | 65 | 214 | 4.0 | 11.0 | 0.00 | 0.00 | 0.00 | 70 | 1016.4 |
| 20260507011002 | 65 | 258 | 5.0 | 11.0 | 0.00 | 0.00 | 0.00 | 69 | 1016.4 |
| 20260507010503 | 65 | 234 | 6.0 | 10.0 | 0.00 | 0.00 | 0.00 | 69 | 1016.5 |
| 20260507010004 | 65 | 273 | 7.0 | 11.0 | 0.00 | 0.00 | 0.00 | 68 | 1016.5 |
| 20260507005503 | 65 | 273 | 6.0 | 11.0 | 0.00 | 0.00 | 0.00 | 69 | 1016.5 |
| 20260507005003 | 65 | 200 | 5.0 | 11.0 | 0.00 | 0.00 | 0.00 | 68 | 1016.5 |
| 20260507004504 | 65 | 269 | 8.0 | 11.0 | 0.00 | 0.00 | 0.00 | 67 | 1016.6 |
| 20260507004003 | 66 | 236 | 6.0 | 12.0 | 0.00 | 0.00 | 0.00 | 66 | 1016.6 |
| 20260507003503 | 66 | 269 | 7.0 | 12.0 | 0.00 | 0.00 | 0.00 | 66 | 1016.5 |
| 20260507003004 | 66 | 237 | 6.0 | 16.0 | 0.00 | 0.00 | 0.00 | 66 | 1016.6 |
| 20260507002503 | 66 | 257 | 8.0 | 16.0 | 0.00 | 0.00 | 0.00 | 64 | 1016.6 |
| 20260507002003 | 66 | 261 | 10.0 | 14.0 | 0.00 | 0.00 | 0.00 | 64 | 1016.7 |
| 20260507001502 | 66 | 270 | 8.0 | 16.0 | 0.00 | 0.00 | 0.00 | 64 | 1016.7 |
| 20260507001003 | 67 | 257 | 10.0 | 16.0 | 0.00 | 0.00 | 0.00 | 63 | 1016.7 |
| 20260507000503 | 67 | 252 | 10.0 | 14.0 | 0.00 | 0.00 | 0.00 | 63 | 1016.7 |
| 20260507000007 | 67 | 242 | 9.0 | 16.0 | 0.00 | 0.00 | 0.00 | 62 | 1016.6 |
| 20260506235505 | 67 | 264 | 9.0 | 16.0 | 0.00 | 0.00 | 0.00 | 63 | 1016.6 |
| 20260506235003 | 67 | 252 | 12.0 | 15.0 | 0.00 | 0.00 | 0.00 | 62 | 1016.7 |
| 20260506234503 | 67 | 235 | 11.0 | 17.0 | 0.00 | 0.00 | 0.00 | 60 | 1016.6 |
| 20260506234001 | 67 | 265 | 9.0 | 18.0 | 0.00 | 0.00 | 0.00 | 60 | 1016.6 |
| 20260506233502 | 68 | 236 | 12.0 | 18.0 | 0.00 | 0.00 | 0.00 | 60 | 1016.7 |
| 20260506233003 | 68 | 266 | 11.0 | 17.0 | 0.00 | 0.00 | 0.00 | 59 | 1016.6 |
| 20260506232502 | 68 | 284 | 10.0 | 17.0 | 0.00 | 0.00 | 0.00 | 60 | 1016.6 |
| 20260506232002 | 68 | 252 | 11.0 | 17.0 | 0.00 | 0.00 | 0.00 | 60 | 1016.7 |
| 20260506231506 | 68 | 293 | 9.0 | 16.0 | 0.00 | 0.00 | 0.00 | 61 | 1016.7 |
| 20260506231001 | 68 | 285 | 11.0 | 17.0 | 0.00 | 0.00 | 0.00 | 61 | 1016.8 |
| 20260506230502 | 68 | 271 | 11.0 | 17.0 | 0.00 | 0.00 | 0.00 | 59 | 1016.8 |
| 20260506230007 | 69 | 275 | 10.0 | 16.0 | 0.00 | 0.00 | 0.00 | 62 | 1016.9 |
| 20260506225502 | 69 | 272 | 11.0 | 16.0 | 0.00 | 0.00 | 0.00 | 62 | 1016.9 |
| 20260506225002 | 68 | 260 | 10.0 | 16.0 | 0.00 | 0.00 | 0.00 | 63 | 1017.0 |
| 20260506224503 | 67 | 257 | 9.0 | 15.0 | 0.00 | 0.00 | 0.00 | 61 | 1017.1 |
| 20260506224004 | 68 | 275 | 9.0 | 16.0 | 0.00 | 0.00 | 0.00 | 63 | 1017.2 |
| 20260506223501 | 68 | 260 | 10.0 | 16.0 | 0.00 | 0.00 | 0.00 | 63 | 1017.3 |
| 20260506223006 | 68 | 282 | 8.0 | 16.0 | 0.00 | 0.00 | 0.00 | 65 | 1017.3 |
| 20260506222502 | 67 | 244 | 11.0 | 15.0 | 0.00 | 0.00 | 0.00 | 64 | 1017.5 |
| 20260506222003 | 67 | 250 | 9.0 | 16.0 | 0.00 | 0.00 | 0.00 | 64 | 1017.6 |
| 20260506221509 | 68 | 238 | 10.0 | 16.0 | 0.00 | 0.00 | 0.00 | 63 | 1017.7 |
| 20260506221002 | 68 | 265 | 10.0 | 15.0 | 0.00 | 0.00 | 0.00 | 61 | 1017.8 |
| 20260506220502 | 68 | 248 | 10.0 | 15.0 | 0.00 | 0.00 | 0.00 | 63 | 1017.8 |
| 20260506220022 | 69 | 260 | 7.0 | 14.0 | 0.00 | 0.00 | 0.00 | 62 | 1017.8 |
| 20260506215503 | 69 | 257 | 10.0 | 17.0 | 0.00 | 0.00 | 0.00 | 61 | 1017.9 |
| 20260506215002 | 70 | 217 | 8.0 | 17.0 | 0.00 | 0.00 | 0.00 | 62 | 1017.9 |
| 20260506214507 | 69 | 284 | 9.0 | 14.0 | 0.00 | 0.00 | 0.00 | 63 | 1018.0 |
| 20260506214001 | 69 | 281 | 9.0 | 14.0 | 0.00 | 0.00 | 0.00 | 63 | 1018.0 |
| 20260506213503 | 68 | 265 | 10.0 | 16.0 | 0.00 | 0.00 | 0.00 | 63 | 1018.1 |
| 20260506213006 | 69 | 255 | 10.0 | 16.0 | 0.00 | 0.00 | 0.00 | 61 | 1018.1 |
| 20260506212503 | 69 | 250 | 10.0 | 13.0 | 0.00 | 0.00 | 0.00 | 60 | 1018.1 |
| 20260506212003 | 69 | 290 | 7.0 | 13.0 | 0.00 | 0.00 | 0.00 | 62 | 1018.2 |
| 20260506211510 | 68 | 223 | 8.0 | 13.0 | 0.00 | 0.00 | 0.00 | 61 | 1018.2 |
| 20260506211003 | 69 | 267 | 9.0 | 13.0 | 0.00 | 0.00 | 0.00 | 60 | 1018.3 |
| 20260506210503 | 70 | 252 | 10.0 | 13.0 | 0.00 | 0.00 | 0.00 | 59 | 1018.3 |
| 20260506210012 | 70 | 238 | 5.0 | 16.0 | 0.00 | 0.00 | 0.00 | 62 | 1018.4 |
| 20260506205504 | 68 | 239 | 7.0 | 16.0 | 0.00 | 0.00 | 0.00 | 62 | 1018.4 |
| 20260506205004 | 69 | 244 | 8.0 | 13.0 | 0.00 | 0.00 | 0.00 | 59 | 1018.4 |
| 20260506204510 | 69 | 232 | 5.0 | 12.0 | 0.00 | 0.00 | 0.00 | 60 | 1018.5 |
| 20260506204003 | 68 | 221 | 7.0 | 12.0 | 0.00 | 0.00 | 0.00 | 59 | 1018.5 |
| 20260506203502 | 69 | 230 | 6.0 | 13.0 | 0.00 | 0.00 | 0.00 | 60 | 1018.4 |
| 20260506203019 | 69 | 251 | 6.0 | 13.0 | 0.00 | 0.00 | 0.00 | 58 | 1018.5 |
| 20260506202503 | 70 | 288 | 7.0 | 13.0 | 0.00 | 0.00 | 0.00 | 60 | 1018.5 |
| 20260506202010 | 69 | 253 | 8.0 | 13.0 | 0.00 | 0.00 | 0.00 | 63 | 1018.6 |
| 20260506201512 | 68 | 275 | 6.0 | 15.0 | 0.00 | 0.00 | 0.00 | 63 | 1018.6 |
| 20260506201004 | 68 | 248 | 6.0 | 15.0 | 0.00 | 0.00 | 0.00 | 62 | 1018.6 |
| 20260506200503 | 68 | 242 | 8.0 | 15.0 | 0.00 | 0.00 | 0.00 | 61 | 1018.6 |
| 20260506200019 | 69 | 219 | 8.0 | 13.0 | 0.00 | 0.00 | 0.00 | 60 | 1018.6 |
| 20260506195503 | 68 | 248 | 8.0 | 13.0 | 0.00 | 0.00 | 0.00 | 62 | 1018.6 |
| 20260506195006 | 68 | 233 | 10.0 | 14.0 | 0.00 | 0.00 | 0.00 | 62 | 1018.7 |
| 20260506194507 | 70 | 323 | 7.0 | 14.0 | 0.00 | 0.00 | 0.00 | 61 | 1018.7 |
| 20260506194005 | 69 | 250 | 7.0 | 11.0 | 0.00 | 0.00 | 0.00 | 61 | 1018.8 |
| 20260506193509 | 69 | 254 | 7.0 | 12.0 | 0.00 | 0.00 | 0.00 | 64 | 1018.9 |
| 20260506193012 | 68 | 233 | 8.0 | 12.0 | 0.00 | 0.00 | 0.00 | 65 | 1018.8 |
| 20260506192503 | 68 | 283 | 9.0 | 13.0 | 0.00 | 0.00 | 0.00 | 64 | 1018.8 |
| 20260506192007 | 68 | 235 | 9.0 | 13.0 | 0.00 | 0.00 | 0.00 | 64 | 1018.8 |
| 20260506191512 | 68 | 296 | 9.0 | 13.0 | 0.00 | 0.00 | 0.00 | 65 | 1018.9 |
| 20260506191004 | 69 | 261 | 8.0 | 13.0 | 0.00 | 0.00 | 0.00 | 64 | 1018.8 |
| 20260506190504 | 69 | 277 | 8.0 | 13.0 | 0.00 | 0.00 | 0.00 | 62 | 1018.8 |
| 20260506190022 | 69 | 268 | 7.0 | 12.0 | 0.00 | 0.00 | 0.00 | 65 | 1018.8 |
| 20260506185501 | 69 | 271 | 8.0 | 12.0 | 0.00 | 0.00 | 0.00 | 65 | 1018.8 |
| 20260506185003 | 68 | 261 | 5.0 | 14.0 | 0.00 | 0.00 | 0.00 | 64 | 1018.8 |
| 20260506184503 | 68 | 266 | 7.0 | 14.0 | 0.00 | 0.00 | 0.00 | 65 | 1018.9 |
| 20260506184004 | 68 | 271 | 9.0 | 13.0 | 0.00 | 0.00 | 0.00 | 67 | 1018.9 |
| 20260506183502 | 68 | 265 | 7.0 | 13.0 | 0.00 | 0.00 | 0.00 | 67 | 1019.0 |
| 20260506183005 | 68 | 254 | 7.0 | 12.0 | 0.00 | 0.00 | 0.00 | 67 | 1019.0 |
| 20260506182501 | 67 | 221 | 6.0 | 14.0 | 0.00 | 0.00 | 0.00 | 66 | 1019.0 |
| 20260506182003 | 68 | 252 | 9.0 | 14.0 | 0.00 | 0.00 | 0.00 | 66 | 1019.0 |
| 20260506181503 | 67 | 270 | 8.0 | 13.0 | 0.00 | 0.00 | 0.00 | 65 | 1019.1 |
| 20260506181002 | 68 | 259 | 7.0 | 13.0 | 0.00 | 0.00 | 0.00 | 67 | 1019.1 |
| 20260506180507 | 68 | 240 | 6.0 | 13.0 | 0.00 | 0.00 | 0.00 | 65 | 1019.1 |
| 20260506180005 | 68 | 207 | 8.0 | 13.0 | 0.00 | 0.00 | 0.00 | 65 | 1019.1 |
| 20260506175503 | 68 | 250 | 4.0 | 14.0 | 0.00 | 0.00 | 0.00 | 65 | 1019.1 |
| 20260506175006 | 69 | 256 | 9.0 | 14.0 | 0.00 | 0.00 | 0.00 | 63 | 1019.2 |
| 20260506174504 | 68 | 232 | 6.0 | 9.0 | 0.00 | 0.00 | 0.00 | 64 | 1019.1 |
| 20260506174001 | 67 | 223 | 3.0 | 9.0 | 0.00 | 0.00 | 0.00 | 1019.2 | |
| 20260506173503 | 0 | 183 | 2.0 | 9.0 | 0.00 | 0.00 | 0.00 | 1019.1 | |
| 20260506173004 | 67 | 244 | 5.0 | 9.0 | 0.00 | 0.00 | 0.00 | 1019.1 | |
| 20260506172501 | 67 | 252 | 7.0 | 9.0 | 0.00 | 0.00 | 0.00 | 66 | 1019.1 |
| 20260506172002 | 67 | 249 | 2.0 | 9.0 | 0.00 | 0.00 | 0.00 | 66 | 1019.1 |
| 20260506171503 | 66 | 265 | 3.0 | 8.0 | 0.00 | 0.00 | 0.00 | 66 | 1019.0 |
| 20260506171003 | 65 | 266 | 5.0 | 8.0 | 0.00 | 0.00 | 0.00 | 65 | 1019.1 |
| 20260506170505 | 66 | 229 | 3.0 | 6.0 | 0.00 | 0.00 | 0.00 | 65 | 1019.0 |
| 20260506170003 | 65 | 241 | 1.0 | 6.0 | 0.00 | 0.00 | 0.00 | 68 | 1019.0 |
| 20260506165506 | 65 | 235 | 4.0 | 7.0 | 0.00 | 0.00 | 0.00 | 67 | 1019.0 |
| 20260506165003 | 64 | 258 | 3.0 | 9.0 | 0.00 | 0.00 | 0.00 | 67 | 1018.9 |
| 20260506164504 | 65 | 232 | 4.0 | 10.0 | 0.00 | 0.00 | 0.00 | 67 | 1019.0 |
| 20260506164005 | 65 | 231 | 4.0 | 10.0 | 0.00 | 0.00 | 0.00 | 67 | 1019.0 |
| 20260506163503 | 64 | 261 | 4.0 | 6.0 | 0.00 | 0.00 | 0.00 | 67 | 1019.1 |
| 20260506163008 | 65 | 190 | 1.0 | 6.0 | 0.00 | 0.00 | 0.00 | 67 | 1019.0 |
| 20260506162504 | 64 | 274 | 3.0 | 6.0 | 0.00 | 0.00 | 0.00 | 70 | 1019.0 |
| 20260506162003 | 65 | 167 | 1.0 | 8.0 | 0.00 | 0.00 | 0.00 | 66 | 1018.9 |
| 20260506161504 | 64 | 275 | 3.0 | 8.0 | 0.00 | 0.00 | 0.00 | 69 | 1018.9 |
| 20260506161004 | 63 | 225 | 1.0 | 5.0 | 0.00 | 0.00 | 0.00 | 70 | 1019.0 |
| 20260506160502 | 64 | 221 | 2.0 | 5.0 | 0.00 | 0.00 | 0.00 | 68 | 1018.9 |
| 20260506160006 | 63 | 307 | 1.0 | 3.0 | 0.00 | 0.00 | 0.00 | 70 | 1018.8 |
| 20260506155502 | 62 | 142 | 1.0 | 3.0 | 0.00 | 0.00 | 0.00 | 70 | 1018.8 |
| 20260506155003 | 62 | 238 | 1.0 | 3.0 | 0.00 | 0.00 | 0.00 | 69 | 1018.8 |
| 20260506154503 | 62 | 337 | 2.0 | 3.0 | 0.00 | 0.00 | 0.00 | 70 | 1018.7 |
| 20260506154004 | 60 | 13 | 1.0 | 5.0 | 0.00 | 0.00 | 0.00 | 70 | 1018.7 |
| 20260506153503 | 60 | 59 | 2.0 | 6.0 | 0.00 | 0.00 | 0.00 | 71 | 1018.8 |
| 20260506153008 | 60 | 46 | 3.0 | 7.0 | 0.00 | 0.00 | 0.00 | 72 | 1018.9 |
| 20260506152506 | 59 | 50 | 3.0 | 8.0 | 0.00 | 0.00 | 0.00 | 72 | 1018.9 |
| 20260506152004 | 59 | 46 | 3.0 | 9.0 | 0.00 | 0.00 | 0.00 | 73 | 1018.9 |
| 20260506151504 | 58 | 68 | 4.0 | 9.0 | 0.00 | 0.00 | 0.00 | 74 | 1018.9 |
| 20260506151005 | 58 | 59 | 4.0 | 7.0 | 0.00 | 0.00 | 0.00 | 74 | 1018.9 |
| 20260506150504 | 58 | 52 | 4.0 | 9.0 | 0.00 | 0.00 | 0.00 | 75 | 1018.9 |
| 20260506150003 | 57 | 35 | 3.0 | 9.0 | 0.00 | 0.00 | 0.00 | 76 | 1018.9 |
| 20260506145508 | 57 | 56 | 5.0 | 9.0 | 0.00 | 0.00 | 0.00 | 76 | 1018.9 |
| 20260506145003 | 56 | 55 | 4.0 | 8.0 | 0.00 | 0.00 | 0.00 | 77 | 1018.9 |
| 20260506144502 | 56 | 62 | 4.0 | 9.0 | 0.00 | 0.00 | 0.00 | 78 | 1018.8 |
| 20260506144002 | 56 | 48 | 5.0 | 9.0 | 0.00 | 0.00 | 0.00 | 78 | 1018.8 |
| 20260506143502 | 55 | 53 | 4.0 | 9.0 | 0.00 | 0.00 | 0.00 | 79 | 1018.7 |
| 20260506143005 | 55 | 24 | 4.0 | 9.0 | 0.00 | 0.00 | 0.00 | 79 | 1018.7 |
| 20260506142503 | 55 | 71 | 5.0 | 9.0 | 0.00 | 0.00 | 0.00 | 80 | 1018.7 |
| 20260506142003 | 54 | 23 | 4.0 | 8.0 | 0.00 | 0.00 | 0.00 | 81 | 1018.6 |
| 20260506141503 | 54 | 56 | 4.0 | 8.0 | 0.00 | 0.00 | 0.00 | 82 | 1018.6 |
| 20260506141006 | 53 | 57 | 3.0 | 9.0 | 0.00 | 0.00 | 0.00 | 83 | 1018.6 |
| 20260506140505 | 53 | 62 | 4.0 | 9.0 | 0.00 | 0.00 | 0.00 | 83 | 1018.5 |
| 20260506140003 | 52 | 54 | 4.0 | 6.0 | 0.00 | 0.00 | 0.00 | 84 | 1018.5 |
| 20260506135506 | 52 | 53 | 3.0 | 8.0 | 0.00 | 0.00 | 0.00 | 85 | 1018.5 |
| 20260506135005 | 51 | 48 | 4.0 | 8.0 | 0.00 | 0.00 | 0.00 | 85 | 1018.5 |
| 20260506134504 | 51 | 45 | 4.0 | 6.0 | 0.00 | 0.00 | 0.00 | 85 | 1018.4 |
| 20260506134005 | 51 | 55 | 3.0 | 6.0 | 0.00 | 0.00 | 0.00 | 86 | 1018.4 |
| 20260506133503 | 51 | 46 | 2.0 | 5.0 | 0.00 | 0.00 | 0.00 | 85 | 1018.5 |
| 20260506133004 | 51 | 67 | 3.0 | 6.0 | 0.00 | 0.00 | 0.00 | 85 | 1018.5 |
| 20260506132508 | 51 | 69 | 3.0 | 6.0 | 0.00 | 0.00 | 0.00 | 85 | 1018.5 |
| 20260506132002 | 51 | 51 | 2.0 | 7.0 | 0.00 | 0.00 | 0.00 | 84 | 1018.5 |
| 20260506131508 | 52 | 66 | 4.0 | 7.0 | 0.00 | 0.00 | 0.00 | 84 | 1018.5 |
| 20260506131004 | 52 | 56 | 2.0 | 4.0 | 0.00 | 0.00 | 0.00 | 84 | 1018.4 |
| 20260506130503 | 52 | 34 | 1.0 | 5.0 | 0.00 | 0.00 | 0.00 | 84 | 1018.3 |
| 20260506130018 | 52 | 59 | 3.0 | 5.0 | 0.00 | 0.00 | 0.00 | 84 | 1018.2 |
| 20260506125504 | 52 | 77 | 3.0 | 5.0 | 0.00 | 0.00 | 0.00 | 84 | 1018.1 |
| 20260506125003 | 52 | 71 | 3.0 | 6.0 | 0.00 | 0.00 | 0.00 | 83 | 1018.1 |
| 20260506124520 | 53 | 70 | 3.0 | 6.0 | 0.00 | 0.00 | 0.00 | 83 | 1018.0 |
| 20260506124006 | 53 | 53 | 2.0 | 5.0 | 0.00 | 0.00 | 0.00 | 83 | 1018.0 |
| 20260506123505 | 53 | 56 | 3.0 | 5.0 | 0.00 | 0.00 | 0.00 | 83 | 1018.1 |
| 20260506123022 | 53 | 53 | 3.0 | 10.0 | 0.00 | 0.00 | 0.00 | 83 | 1018.0 |
| 20260506122507 | 53 | 45 | 3.0 | 10.0 | 0.00 | 0.00 | 0.00 | 84 | 1017.9 |
| 20260506122003 | 53 | 49 | 2.0 | 5.0 | 0.00 | 0.00 | 0.00 | 83 | 1017.8 |
| 20260506121505 | 53 | 54 | 2.0 | 5.0 | 0.00 | 0.00 | 0.00 | 84 | 1017.7 |
| 20260506121003 | 53 | 40 | 3.0 | 5.0 | 0.00 | 0.00 | 0.00 | 84 | 1017.6 |
| 20260506120503 | 53 | 41 | 3.0 | 6.0 | 0.00 | 0.00 | 0.00 | 84 | 1017.6 |
| 20260506120021 | 53 | 33 | 4.0 | 6.0 | 0.00 | 0.00 | 0.00 | 84 | 1017.6 |
| 20260506115504 | 53 | 38 | 2.0 | 5.0 | 0.00 | 0.00 | 0.00 | 84 | 1017.6 |
| 20260506115003 | 53 | 65 | 3.0 | 8.0 | 0.00 | 0.00 | 0.00 | 85 | 1017.6 |
| 20260506114511 | 53 | 36 | 4.0 | 8.0 | 0.00 | 0.00 | 0.00 | 85 | 1017.6 |
| 20260506114004 | 53 | 53 | 4.0 | 8.0 | 0.00 | 0.00 | 0.00 | 85 | 1017.6 |
| 20260506113502 | 53 | 46 | 4.0 | 7.0 | 0.00 | 0.00 | 0.00 | 85 | 1017.6 |
| 20260506113021 | 53 | 38 | 4.0 | 9.0 | 0.00 | 0.00 | 0.00 | 85 | 1017.6 |
| 20260506112508 | 53 | 63 | 5.0 | 9.0 | 0.00 | 0.00 | 0.00 | 84 | 1017.5 |
| 20260506112003 | 53 | 45 | 4.0 | 8.0 | 0.00 | 0.00 | 0.00 | 84 | 1017.5 |
| 20260506111523 | 53 | 62 | 4.0 | 8.0 | 0.00 | 0.00 | 0.00 | 84 | 1017.6 |
| 20260506111004 | 54 | 49 | 4.0 | 9.0 | 0.00 | 0.00 | 0.00 | 84 | 1017.6 |
| 20260506110504 | 54 | 53 | 4.0 | 9.0 | 0.00 | 0.00 | 0.00 | 85 | 1017.6 |
| 20260506110026 | 54 | 24 | 4.0 | 9.0 | 0.00 | 0.00 | 0.00 | 85 | 1017.7 |
| 20260506105504 | 54 | 36 | 6.0 | 9.0 | 0.00 | 0.00 | 0.00 | 85 | 1017.7 |
| 20260506105003 | 53 | 44 | 4.0 | 9.0 | 0.00 | 0.00 | 0.00 | 85 | 1017.6 |
| 20260506104512 | 53 | 40 | 4.0 | 7.0 | 0.00 | 0.00 | 0.00 | 86 | 1017.7 |
| 20260506104003 | 53 | 31 | 4.0 | 7.0 | 0.00 | 0.00 | 0.00 | 86 | 1017.6 |
| 20260506103508 | 53 | 69 | 4.0 | 7.0 | 0.00 | 0.00 | 0.00 | 86 | 1017.5 |
| 20260506103016 | 53 | 40 | 3.0 | 7.0 | 0.00 | 0.00 | 0.00 | 86 | 1017.6 |
| 20260506102507 | 53 | 44 | 3.0 | 8.0 | 0.00 | 0.00 | 0.00 | 86 | 1017.5 |
| 20260506102004 | 53 | 65 | 4.0 | 8.0 | 0.00 | 0.00 | 0.00 | 86 | 1017.5 |
| 20260506101522 | 53 | 37 | 5.0 | 9.0 | 0.00 | 0.00 | 0.00 | 86 | 1017.6 |
| 20260506101007 | 53 | 36 | 4.0 | 9.0 | 0.00 | 0.00 | 0.00 | 86 | 1017.6 |
| 20260506100504 | 53 | 61 | 4.0 | 7.0 | 0.00 | 0.00 | 0.00 | 86 | 1017.6 |
| 20260506100023 | 53 | 62 | 4.0 | 9.0 | 0.00 | 0.00 | 0.00 | 86 | 1017.7 |
| 20260506095505 | 53 | 59 | 3.0 | 9.0 | 0.00 | 0.00 | 0.00 | 86 | 1017.6 |
| 20260506095002 | 53 | 51 | 4.0 | 7.0 | 0.00 | 0.00 | 0.00 | 86 | 1017.6 |
| 20260506094528 | 53 | 59 | 3.0 | 7.0 | 0.00 | 0.00 | 0.00 | 86 | 1017.7 |
| 20260506094005 | 53 | 57 | 3.0 | 6.0 | 0.00 | 0.00 | 0.00 | 85 | 1017.7 |
| 20260506093505 | 53 | 66 | 2.0 | 4.0 | 0.00 | 0.00 | 0.00 | 85 | 1017.9 |
| 20260506093014 | 54 | 71 | 2.0 | 3.0 | 0.00 | 0.00 | 0.00 | 85 | 1017.8 |
| 20260506092506 | 54 | 46 | 2.0 | 3.0 | 0.00 | 0.00 | 0.00 | 85 | 1017.9 |
| 20260506092009 | 54 | 40 | 1.0 | 3.0 | 0.00 | 0.00 | 0.00 | 85 | 1017.9 |
| 20260506091521 | 54 | 49 | 2.0 | 3.0 | 0.00 | 0.00 | 0.00 | 85 | 1018.0 |
| 20260506091006 | 54 | 46 | 1.0 | 3.0 | 0.00 | 0.00 | 0.00 | 85 | 1018.0 |
| 20260506090507 | 54 | 53 | 1.0 | 4.0 | 0.00 | 0.00 | 0.00 | 85 | 1018.0 |
| 20260506090027 | 53 | 62 | 2.0 | 4.0 | 0.00 | 0.00 | 0.00 | 85 | 1018.0 |
| 20260506085503 | 54 | 63 | 2.0 | 5.0 | 0.00 | 0.00 | 0.00 | 85 | 1018.1 |
| 20260506085003 | 54 | 75 | 3.0 | 5.0 | 0.00 | 0.00 | 0.00 | 85 | 1018.1 |
| 20260506084511 | 54 | 51 | 2.0 | 4.0 | 0.00 | 0.00 | 0.00 | 85 | 1018.2 |
| 20260506084004 | 54 | 51 | 2.0 | 4.0 | 0.00 | 0.00 | 0.00 | 84 | 1018.2 |
| 20260506083504 | 55 | 50 | 2.0 | 5.0 | 0.00 | 0.00 | 0.00 | 84 | 1018.1 |
| 20260506083005 | 55 | 72 | 3.0 | 5.0 | 0.00 | 0.00 | 0.00 | 84 | 1018.1 |
| 20260506082504 | 55 | 92 | 2.0 | 4.0 | 0.00 | 0.00 | 0.00 | 85 | 1018.1 |
| 20260506082005 | 55 | 86 | 3.0 | 5.0 | 0.00 | 0.00 | 0.00 | 85 | 1018.1 |
| 20260506081505 | 55 | 55 | 2.0 | 5.0 | 0.00 | 0.00 | 0.00 | 85 | 1018.1 |
| 20260506081004 | 55 | 37 | 3.0 | 5.0 | 0.00 | 0.00 | 0.00 | 85 | 1018.2 |
| 20260506080503 | 55 | 51 | 3.0 | 5.0 | 0.00 | 0.00 | 0.00 | 85 | 1018.2 |
| 20260506073504 | 55 | 61 | 3.0 | 7.0 | 0.00 | 0.00 | 0.00 | 85 | 1018.0 |
| 20260506073004 | 55 | 73 | 3.0 | 7.0 | 0.00 | 0.00 | 0.00 | 85 | 1018.0 |
| 20260506072506 | 55 | 74 | 2.0 | 6.0 | 0.00 | 0.00 | 0.00 | 85 | 1017.9 |
| 20260506072003 | 55 | 76 | 4.0 | 6.0 | 0.00 | 0.00 | 0.00 | 85 | 1017.9 |
| 20260506071504 | 55 | 68 | 3.0 | 6.0 | 0.00 | 0.00 | 0.00 | 85 | 1017.9 |
| 20260506071008 | 55 | 51 | 3.0 | 6.0 | 0.00 | 0.00 | 0.00 | 85 | 1017.8 |
| 20260506070504 | 55 | 67 | 4.0 | 6.0 | 0.00 | 0.00 | 0.00 | 85 | 1017.8 |
| 20260506062504 | 55 | 61 | 2.0 | 5.0 | 0.00 | 0.00 | 0.00 | 84 | 1017.4 |
| 20260506062005 | 55 | 42 | 3.0 | 5.0 | 0.00 | 0.00 | 0.00 | 84 | 1017.3 |
| 20260506061504 | 55 | 59 | 3.0 | 5.0 | 0.00 | 0.00 | 0.00 | 84 | 1017.3 |
| 20260506061004 | 55 | 76 | 2.0 | 5.0 | 0.00 | 0.00 | 0.00 | 84 | 1017.3 |
| 20260506060505 | 55 | 63 | 3.0 | 5.0 | 0.00 | 0.00 | 0.00 | 84 | 1017.3 |
| 20260506051004 | 57 | 112 | 1.0 | 4.0 | 0.00 | 0.00 | 0.00 | 84 | 1017.1 |
| 20260506050505 | 57 | 88 | 1.0 | 4.0 | 0.00 | 0.00 | 0.00 | 84 | 1017.0 |
| 20260506045006 | 57 | 101 | 1.0 | 4.0 | 0.00 | 0.00 | 0.00 | 84 | 1017.0 |
| 20260506044533 | 57 | 127 | 2.0 | 4.0 | 0.00 | 0.00 | 0.00 | 84 | 1016.9 |
| 20260506044008 | 57 | 123 | 2.0 | 4.0 | 0.00 | 0.00 | 0.00 | 84 | 1016.9 |
| 20260506043505 | 57 | 115 | 2.0 | 4.0 | 0.00 | 0.00 | 0.00 | 84 | 1016.8 |
| 20260506043025 | 57 | 151 | 2.0 | 7.0 | 0.00 | 0.00 | 0.00 | 84 | 1016.7 |
| 20260506042509 | 57 | 123 | 2.0 | 7.0 | 0.00 | 0.00 | 0.00 | 83 | 1016.6 |
| 20260506042004 | 57 | 94 | 3.0 | 7.0 | 0.00 | 0.00 | 0.00 | 83 | 1016.6 |
| 20260506041538 | 57 | 106 | 3.0 | 7.0 | 0.00 | 0.00 | 0.00 | 83 | 1016.5 |
| 20260506041005 | 57 | 126 | 3.0 | 6.0 | 0.00 | 0.00 | 0.00 | 82 | 1016.5 |